DELTA 1 DEB *, 42557

Orbit data source: Space-Track

DELTA 1 DEB *, 42557 is space debris in SSO originally from a launch on Sun, 23 Jul 1972 UTC launched from the Air Force Western Test Range (AFWTR). Debris objects in space refer to the collection of defunct objects orbiting the Earth. Examples of debris include non-operational satellites, rocket bodies, and fragments generated from explosions, collisions, or faulty payload assembly.

Loading next visibility...
Identifier
42557, 1972-058JQ
Orbit
SSO
Country
Flag of USUS
Related business
Manufacturer
Unknown
Mission
Spacecraft
Bus & Motor
Unknown
Mass
Unknown
Launch date (UTC)
1972-07-23 (54 years ago)
Launch vehicle
Unknown
Launch site
Air Force Western Test Range (AFWTR)
Object type
Payload
Rocket body
Debris
Shape & HBR
Unknown shape, 0.1 m
Radar Cross Section
Small (<0.1 m²)

Expand to show TLE details & history
Last TLE update: 1 day ago

TLE from 1 day ago
0 DELTA 1 DEB *
1 42557U 72058JQ  26120.45359091  .00000064  00000-0  42159-4 0  9997
2 42557  98.5977 201.5084 0013009  61.1288 359.4908 14.29400893648656
Epoch: 2026-04-30T10:53Z
TLE epoch observation values (Epoch: 2026-04-30T10:53:10.254Z)
Latitude
59.59179°
Longitude
164.96796°
Altitude
794.493 km
Speed
7.467 km/s
True Right ascension
12h 26m 38s
True Declination
59° 26' 32"
Sunlit
Object was in daylight at epoch
Visualization orbit readout
Latitude
Unknown
Longitude
Unknown
Altitude
Unknown
Speed
Unknown
Apparent Right ascension
Unknown
Apparent Declination
Unknown
Sunlit
N/A
Visualization observer readout
Local Sidereal Time
00:13:03
Azimuth
Unknown
Elevation
Unknown
Doppler factor
Unknown
Orbital elements
Apogee altitude
800.201 km
Perigee altitude
781.549 km
Semi-major axis
7,169.012 km
Eccentricity
0.0013
Inclination
98.5977°
RAAN
201.5084°
Arg. of periapsis
61.1288°
True anomaly
359.48947°
Mean anomaly
359.4908°
Eccentric anomaly
359.49014°
Mean motion
3.57564 °/min
Orbital period
100.68 mins
BSTAR
0.000042159
Loading maneuver chart data...
Computing Atmospheric mass density...
Loading historical data...
Loading historical data...
Loading historical data...
Loading historical data...
Loading historical data...
Loading historical data...
Loading historical data...

Documentation

Showing up to 5 results
|